CW3518 Weather Reports


Display with metric or nautical units.
time (UTC)temp
F
wind
direction
speed
MPH
gust
MPH
rain 1hr
in
rain 24hr
in
rain mn
in
humidity
%
barometer
mb
20260504190531 78 166 19.0 25.0 0.00 0.00 0.00 56 1009.0
20260504190001 77 165 13.0 20.0 0.00 0.00 0.00 58 1009.2
20260504185500 77 165 20.0 25.0 0.00 0.00 0.00 56 1009.3
20260504185030 78 186 11.0 30.0 0.00 0.00 0.00 58 1009.6
20260504184500 77 179 12.0 30.0 0.00 0.00 0.00 58 1009.4
20260504184000 77 184 16.0 22.0 0.00 0.00 0.00 56 1009.4
20260504183501 77 199 16.0 22.0 0.00 0.00 0.00 57 1009.6
20260504183001 77 170 10.0 27.0 0.00 0.00 0.00 58 1009.8
20260504182500 76 210 14.0 27.0 0.00 0.00 0.00 59 1009.8
20260504182000 77 206 15.0 26.0 0.00 0.00 0.00 58 1009.8
20260504181500 76 193 19.0 31.0 0.00 0.00 0.00 57 1009.9
20260504181002 76 220 29.0 31.0 0.00 0.00 0.00 58 1009.9
20260504180501 75 196 14.0 28.0 0.00 0.00 0.00 58 1010.1
20260504180000 75 203 14.0 25.0 0.00 0.00 0.00 60 1010.2
20260504175000 75 196 18.0 24.0 0.00 0.00 0.00 58 1010.4
20260504174501 75 197 15.0 24.0 0.00 0.00 0.00 59 1010.5
20260504173501 75 0 0.0 23.0 0.00 0.00 0.00 59 1010.4
20260504173000 75 185 14.0 20.0 0.00 0.00 0.00 61 1010.4
20260504172503 75 178 11.0 27.0 0.00 0.00 0.00 60 1010.6
20260504172000 74 202 13.0 27.0 0.00 0.00 0.00 60 1010.6
20260504171500 73 204 19.0 23.0 0.00 0.00 0.00 61 1010.7
20260504171000 73 212 19.0 23.0 0.00 0.00 0.00 62 1010.7
20260504170501 73 190 16.0 23.0 0.00 0.00 0.00 62 1010.8
20260504151030 70 210 21.0 25.0 0.00 0.00 0.00 62 1011.9
20260504150531 70 197 11.0 23.0 0.00 0.00 0.00 62 1012.0
20260504141000 67 202 11.0 21.0 0.00 0.00 0.00 70 1012.3
20260504140500 67 197 13.0 21.0 0.00 0.00 0.00 69 1012.2
20260504100501 62 186 4.0 13.0 0.00 0.00 0.00 70 1012.6
20260504081501 60 162 6.0 7.0 0.00 0.00 0.00 71 1013.2
20260504081001 60 186 6.0 6.0 0.00 0.00 0.00 71 1013.3
20260504080501 60 184 5.0 6.0 0.00 0.00 0.00 71 1013.3
20260504050502 63 196 4.0 6.0 0.00 0.00 0.00 61 1015.3
20260504050002 63 196 5.0 6.0 0.00 0.00 0.00 60 1015.3
20260504045002 63 196 4.0 7.0 0.00 0.00 0.00 60 1015.4
20260504044501 63 208 6.0 8.0 0.00 0.00 0.00 60 1015.4
20260504044001 64 213 6.0 8.0 0.00 0.00 0.00 59 1015.4
20260504043501 64 200 6.0 7.0 0.00 0.00 0.00 59 1015.5
20260504042501 64 204 5.0 6.0 0.00 0.00 0.00 58 1015.6
20260504042001 64 189 3.0 6.0 0.00 0.00 0.00 58 1015.6
20260504041001 64 203 4.0 6.0 0.00 0.00 0.00 57 1015.7
20260504040501 64 189 3.0 5.0 0.00 0.00 0.00 57 1015.7
20260504040031 65 195 3.0 7.0 0.00 0.00 0.00 56 1015.8
20260504035501 65 190 3.0 7.0 0.00 0.00 0.00 56 1015.8
20260504035001 65 189 4.0 5.0 0.00 0.00 0.00 56 1015.7
20260504034531 65 188 3.0 5.0 0.00 0.00 0.00 56 1015.7
20260504034001 65 177 3.0 5.0 0.00 0.00 0.00 56 1015.6
20260504033501 65 167 4.0 5.0 0.00 0.00 0.00 56 1015.6
20260504032531 65 184 3.0 5.0 0.00 0.00 0.00 56 1015.5
20260504032001 66 169 4.0 5.0 0.00 0.00 0.00 56 1015.5
20260504031501 66 165 4.0 5.0 0.00 0.00 0.00 55 1015.5
20260504031001 66 181 3.0 5.0 0.00 0.00 0.00 55 1015.5
20260504030532 66 171 4.0 5.0 0.00 0.00 0.00 54 1015.6
20260504030005 66 169 4.0 5.0 0.00 0.00 0.00 54 1015.5
20260504025533 66 177 3.0 5.0 0.00 0.00 0.00 53 1015.4
20260504025031 66 179 3.0 6.0 0.00 0.00 0.00 53 1015.4
20260504024501 66 155 4.0 6.0 0.00 0.00 0.00 53 1015.4
20260504024001 67 151 5.0 7.0 0.00 0.00 0.00 52 1015.3
20260504023501 67 157 5.0 7.0 0.00 0.00 0.00 52 1015.3
20260504023001 67 153 5.0 7.0 0.00 0.00 0.00 52 1015.3
20260504022501 67 143 6.0 7.0 0.00 0.00 0.00 51 1015.3
20260504022001 68 142 7.0 7.0 0.00 0.00 0.00 51 1015.3
20260504021501 68 153 5.0 9.0 0.00 0.00 0.00 50 1015.3
20260504021001 68 142 6.0 9.0 0.00 0.00 0.00 50 1015.3
20260504015501 69 149 6.0 8.0 0.00 0.00 0.00 49 1015.2
20260504015001 69 148 6.0 7.0 0.00 0.00 0.00 49 1015.2
20260504014501 69 148 5.0 7.0 0.00 0.00 0.00 48 1015.2
20260504014001 69 157 7.0 7.0 0.00 0.00 0.00 47 1015.1
20260504013501 70 149 6.0 7.0 0.00 0.00 0.00 47 1015.1
20260504011501 72 175 5.0 7.0 0.00 0.00 0.00 42 1014.9
20260504011002 72 180 5.0 8.0 0.00 0.00 0.00 42 1014.9
20260504010501 73 187 6.0 9.0 0.00 0.00 0.00 41 1014.9
20260504005001 74 186 6.0 8.0 0.00 0.00 0.00 39 1014.8
20260504004501 74 163 4.0 9.0 0.00 0.00 0.00 39 1014.8
20260504004001 75 197 7.0 10.0 0.00 0.00 0.00 38 1014.8
20260504003501 75 186 7.0 10.0 0.00 0.00 0.00 37 1014.8
20260504003001 76 205 9.0 10.0 0.00 0.00 0.00 36 1014.9
20260504002001 77 200 9.0 13.0 0.00 0.00 0.00 34 1014.8
20260504001501 77 203 12.0 13.0 0.00 0.00 0.00 34 1014.9
20260504001001 77 204 10.0 13.0 0.00 0.00 0.00 33 1015.0
20260504000501 78 203 8.0 13.0 0.00 0.00 0.00 34 1015.0
20260504000001 78 202 10.0 13.0 0.00 0.00 0.00 34 1015.0
20260503235002 78 205 7.0 17.0 0.00 0.00 0.00 35 1015.1
20260503234001 78 208 12.0 17.0 0.00 0.00 0.00 32 1015.0
20260503233501 79 200 12.0 17.0 0.00 0.00 0.00 32 1015.2
20260503233001 79 200 11.0 17.0 0.00 0.00 0.00 33 1015.2
20260503231501 79 208 10.0 16.0 0.00 0.00 0.00 32 1015.3
20260503231001 79 189 13.0 13.0 0.00 0.00 0.00 31 1015.3
20260503230501 79 205 10.0 16.0 0.00 0.00 0.00 31 1015.3
20260503230001 79 189 12.0 19.0 0.00 0.00 0.00 30 1015.3
20260503225501 79 214 16.0 19.0 0.00 0.00 0.00 31 1015.3
20260503225001 79 205 10.0 18.0 0.00 0.00 0.00 31 1015.4
20260503224531 79 197 16.0 19.0 0.00 0.00 0.00 29 1015.3
20260503224003 80 199 14.0 19.0 0.00 0.00 0.00 30 1015.4
20260503223031 80 193 11.0 20.0 0.00 0.00 0.00 31 1015.5
20260503222531 80 195 9.0 20.0 0.00 0.00 0.00 31 1015.5
20260503222001 80 203 13.0 19.0 0.00 0.00 0.00 30 1015.5
20260503221502 80 226 14.0 17.0 0.00 0.00 0.00 31 1015.5
20260503221001 80 204 11.0 19.0 0.00 0.00 0.00 30 1015.6
20260503220532 80 191 10.0 23.0 0.00 0.00 0.00 31 1015.7
20260503220001 80 180 9.0 23.0 0.00 0.00 0.00 30 1015.8
20260503215502 80 216 13.0 20.0 0.00 0.00 0.00 31 1015.9
20260503215001 80 209 16.0 18.0 0.00 0.00 0.00 31 1015.9
20260503214531 80 207 11.0 17.0 0.00 0.00 0.00 31 1016.0
20260503214001 80 201 13.0 18.0 0.00 0.00 0.00 29 1016.1
20260503213002 80 205 13.0 19.0 0.00 0.00 0.00 32 1016.3
20260503212501 79 196 15.0 17.0 0.00 0.00 0.00 32 1016.3
20260503211031 80 231 10.0 18.0 0.00 0.00 0.00 33 1016.6
20260503210501 80 222 17.0 18.0 0.00 0.00 0.00 31 1016.6
20260503210001 79 204 11.0 18.0 0.00 0.00 0.00 33 1016.8
20260503205531 79 205 11.0 18.0 0.00 0.00 0.00 32 1016.9
20260503205031 80 207 13.0 24.0 0.00 0.00 0.00 32 1016.9
20260503204001 80 223 16.0 18.0 0.00 0.00 0.00 32 1017.0
20260503203531 79 220 16.0 18.0 0.00 0.00 0.00 30 1017.2
20260503203001 80 223 9.0 16.0 0.00 0.00 0.00 31 1017.4
20260503202531 80 235 6.0 19.0 0.00 0.00 0.00 34 1017.5
20260503202031 80 226 19.0 19.0 0.00 0.00 0.00 32 1017.4
20260503201502 80 187 12.0 17.0 0.00 0.00 0.00 31 1017.5
20260503200532 80 222 11.0 19.0 0.00 0.00 0.00 32 1017.7
20260503200032 80 241 15.0 19.0 0.00 0.00 0.00 30 1017.7
20260503195501 79 200 11.0 20.0 0.00 0.00 0.00 30 1017.8
20260503195001 80 220 17.0 25.0 0.00 0.00 0.00 31 1017.8
20260503194033 79 224 13.0 23.0 0.00 0.00 0.00 32 1018.1
20260503193502 79 239 20.0 23.0 0.00 0.00 0.00 36 1018.1
20260503193001 79 200 15.0 21.0 0.00 0.00 0.00 33 1018.2
20260503192502 79 247 11.0 20.0 0.00 0.00 0.00 38 1018.3
20260503191002 79 226 13.0 21.0 0.00 0.00 0.00 37 1018.5